Location: Vista Encantada
(35.1109°N, 106.5681°W)
Time: 09:21:09
(UTC+00:00)

Meteor 2-8 Rocket - Pass Details

Date: 29 October 2020
Orbit: 937 x 958 km, 82.5° (Epoch: 04 December)

Event Time Altitude Azimuth Distance (km) Brightness Sun altitude
Rises 12:27:51 0° 351° (N) 3,644 7.3 -12.3°
Reaches altitude 10° 12:30:22 10° 350° (N) 2,694 6.6 -11.8°
Maximum altitude 12:36:31 75° 266° (W) 988 4.4 -10.5°
Drops below altitude 10° 12:42:37 10° 181° (S) 2,670 6.9 -9.3°
Sets 12:45:05 0° 180° (S) 3,609 7.6 -8.8°
